1488225600.27,35928,8.56,72626.5,-5.19,-11.23,-11.45,0,*58
1488225601.55,35929,8.56,72620.3,-5.19,-12.53,-13.37,0,*5A
1488225602.81,35930,8.56,72608.5,-5.19,-12.43,-12.71,0,*50
1488225604.06,35931,8.56,72614.3,-5.19,-12.97,-13.79,0,*51
1488225605.33,35932,8.56,72626.3,-5.17,-13.97,-14.47,0,*57
1488225606.58,35933,8.56,72616.8,-5.21,-14.15,-14.97,0,*53
1488225607.82,35934,8.56,72620.8,-5.17,-14.37,-14.93,0,*55
1488225609.06,35935,8.56,72634.5,-5.19,-14.23,-15.15,0,*50
1488225610.27,35936,8.56,72660.3,-5.21,-13.23,-14.37,0,*5E
1488225611.52,35937,8.56,72678.3,-5.19,-13.37,-14.11,0,*55
1488225612.75,35938,8.56,72644.8,-5.19,-13.65,-13.69,0,*55
1488225614.01,35939,8.56,72658.3,-5.21,-13.97,-13.79,0,*53
1488225615.28,35940,8.56,72688.3,-5.19,-14.15,-14.55,0,*52
1488225616.54,35941,8.56,72676.3,-5.21,-14.43,-15.01,0,*5B
1488225617.78,35942,8.56,72690.0,-5.21,-13.65,-13.97,0,*52
1488225619.04,35943,8.56,72670.0,-5.19,-13.43,-13.97,0,*5C
1488225620.27,35944,8.56,72652.5,-5.19,-13.43,-13.69,0,*5A
1488225621.53,35945,8.56,72666.5,-5.19,-12.15,-11.45,0,*55
1488225622.74,35946,8.56,72680.8,-5.21,-10.31,-10.49,0,*54
1488225624.0,35947,8.56,72676.8,-5.19,-10.97,-11.59,0,*52
1488225625.23,35948,8.56,72674.3,-5.21,-12.43,-13.29,0,*58
1488225626.53,35949,8.56,72646.8,-5.19,-14.01,-14.97,0,*50
1488225627.81,35950,8.56,72614.0,-5.19,-14.97,-15.57,0,*5A
1488225629.03,35951,8.56,72626.0,-5.21,-14.97,-15.11,0,*52
1488225630.27,35952,8.56,72678.3,-5.21,-14.65,-14.55,0,*5D
1488225631.53,35953,8.56,72650.5,-5.19,-14.23,-14.43,0,*52
1488225632.77,35954,8.56,72650.3,-5.21,-14.51,-15.11,0,*5D
1488225634.02,35955,8.56,72654.0,-5.21,-14.97,-15.57,0,*54
1488225635.3,35956,8.56,72668.8,-5.19,-14.97,-15.81,0,*57
1488225636.54,35957,8.56,72660.8,-5.21,-15.11,-15.81,0,*52
1488225637.74,35958,8.56,72664.3,-5.21,-15.11,-15.99,0,*54
1488225638.95,35959,8.56,72662.8,-5.21,-15.15,-15.99,0,*51
1488225640.21,35960,8.56,72646.8,-5.21,-15.01,-15.89,0,*5F
1488225641.47,35961,8.56,72620.8,-5.21,-14.43,-15.57,0,*5A
1488225642.71,35962,8.56,72632.8,-5.19,-14.15,-14.69,0,*5D
1488225643.91,35963,8.56,72658.8,-5.21,-13.93,-14.11,0,*51
1488225645.15,35964,8.56,72676.5,-5.21,-12.97,-13.37,0,*50
1488225646.38,35965,8.56,72710.5,-5.25,-13.47,-14.05,0,*5F
1488225647.62,35966,8.56,72704.5,-5.21,-14.11,-14.83,0,*52
1488225648.84,35967,8.56,72688.0,-5.21,-14.29,-15.11,0,*52
1488225650.11,35968,8.56,72672.8,-5.21,-14.55,-15.39,0,*5C
1488225651.32,35969,8.56,72670.8,-5.21,-14.89,-15.71,0,*50
1488225652.55,35970,8.56,72688.5,-5.21,-15.01,-15.71,0,*59
1488225653.83,35971,8.56,72682.0,-5.19,-15.01,-15.89,0,*54
1488225655.04,35972,8.56,72692.3,-5.25,-15.15,-15.95,0,*50
1488225656.25,35973,8.56,72694.3,-5.25,-15.07,-15.95,0,*52
1488225657.46,35974,8.56,72682.0,-5.21,-15.11,-15.99,0,*5A
1488225658.69,35975,8.56,72680.0,-5.21,-15.11,-15.89,0,*5A
1488225659.89,35976,8.56,72702.5,-5.21,-15.11,-16.03,0,*58
1488225661.1,35977,8.56,72704.5,-5.21,-15.11,-15.99,0,*59
1488225662.3,35978,8.56,72698.8,-5.21,-15.11,-16.03,0,*56
1488225663.51,35979,8.56,72688.8,-5.25,-15.07,-16.03,0,*54
1488225664.72,35980,8.56,72704.8,-5.25,-15.07,-16.03,0,*52
1488225665.95,35981,8.56,72702.5,-5.25,-15.01,-15.95,0,*59
1488225667.18,35982,8.56,72662.3,-5.21,-15.11,-15.89,0,*52
1488225668.41,35983,8.56,72696.8,-5.21,-15.11,-16.13,0,*53
1488225669.65,35984,8.56,72678.8,-5.25,-15.15,-16.09,0,*5F
1488225670.88,35985,8.56,72692.3,-5.25,-15.21,-16.03,0,*53
1488225672.14,35986,8.56,72690.3,-5.25,-15.21,-16.09,0,*5A
1488225673.42,35987,8.56,72678.5,-5.27,-15.21,-16.09,0,*59
1488225674.66,35988,8.56,72666.3,-5.25,-15.15,-16.09,0,*53
1488225675.92,35989,8.56,72668.0,-5.27,-15.29,-16.09,0,*5F
1488225677.17,35990,8.56,72690.8,-5.25,-15.29,-16.09,0,*55
1488225678.4,35991,8.56,72696.3,-5.27,-15.07,-16.03,0,*50
1488225679.63,35992,8.56,72718.8,-5.27,-15.07,-16.03,0,*53
1488225680.86,35993,8.56,72700.3,-5.25,-14.93,-16.03,0,*5C
1488225682.09,35994,8.56,72680.3,-5.25,-14.93,-15.95,0,*57
1488225683.33,35995,8.56,72694.8,-5.27,-14.89,-15.75,0,*51
1488225684.58,35996,8.56,72712.0,-5.27,-14.69,-15.35,0,*58
1488225685.82,35997,8.56,72692.0,-5.25,-14.83,-15.63,0,*5C
1488225687.08,35998,8.56,72698.8,-5.25,-14.93,-15.57,0,*55
1488225688.33,35999,8.56,72740.5,-5.27,-15.01,-15.71,0,*58
1488225689.59,36000,8.56,72720.5,-5.25,-14.93,-15.57,0,*5E
1488225690.83,36001,8.56,72714.8,-5.25,-14.89,-15.57,0,*54
1488225692.1,36002,8.56,72712.3,-5.25,-14.83,-15.43,0,*58
1488225693.33,36003,8.56,72740.8,-5.25,-14.75,-15.15,0,*53
1488225694.57,36004,8.56,72714.8,-5.25,-14.29,-14.47,0,*5B
1488225695.81,36005,8.5,72724.5,-5.27,-13.69,-13.73,0,*5B
1488225697.06,36006,8.56,72748.3,-5.27,-13.11,-13.01,0,*52
1488225698.3,36007,8.56,72726.3,-5.25,-12.21,-11.59,0,*5C
1488225699.54,36008,8.56,72730.8,-5.25,-11.51,-10.35,0,*5C
1488225700.8,36009,8.56,72730.8,-5.25,-10.79,-9.15,0,*6C
1488225702.0,36010,8.56,72728.3,-5.21,-9.31,-7.83,0,*55
1488225703.25,36011,8.56,72720.5,-5.21,-7.61,-6.63,0,*50
1488225704.45,36012,8.56,72720.5,-5.21,-6.43,-6.01,0,*56
1488225705.7,36013,8.56,72716.0,-5.21,-5.77,-5.65,0,*52
1488225706.97,36014,8.56,72712.0,-5.19,-5.11,-5.11,0,*5D
1488225708.25,36015,8.56,72688.5,-5.19,-5.27,-5.27,0,*5C
1488225709.5,36016,8.56,72686.3,-5.17,-5.61,-5.69,0,*59
1488225710.74,36017,8.56,72672.8,-5.17,-5.81,-5.73,0,*5D
1488225712.0,36018,8.56,72660.3,-5.17,-5.85,-5.81,0,*5B
1488225713.19,36019,8.56,72660.0,-5.17,-6.01,-5.97,0,*52
1488225714.39,36020,8.56,72666.0,-5.17,-6.09,-6.13,0,*5F
1488225715.59,36021,8.56,72662.0,-5.17,-6.09,-6.01,0,*5D
1488225716.78,36022,8.56,72660.8,-5.17,-6.09,-6.13,0,*5D
1488225718.03,36023,8.56,72658.3,-5.17,-6.23,-6.27,0,*53
1488225719.22,36024,8.56,72656.5,-5.17,-6.13,-6.39,0,*58
1488225720.44,36025,8.56,72658.8,-5.17,-6.27,-6.51,0,*50
1488225721.64,36026,8.56,72656.5,-5.17,-6.31,-6.55,0,*50
1488225722.86,36027,8.56,72656.3,-5.17,-6.23,-6.39,0,*58
1488225724.08,36028,8.56,72658.5,-5.17,-6.23,-6.35,0,*5B
1488225725.31,36029,8.56,72660.8,-5.21,-6.19,-6.43,0,*57
1488225726.56,36030,8.56,72672.3,-5.19,-6.19,-6.43,0,*54
1488225727.79,36031,8.56,72674.0,-5.17,-6.23,-6.59,0,*59
1488225728.99,36032,8.56,72666.3,-5.13,-6.35,-6.55,0,*55
1488225730.19,36033,8.56,72660.0,-5.17,-6.47,-6.47,0,*56
1488225731.38,36034,8.56,72658.5,-5.17,-6.39,-6.47,0,*58
1488225732.58,36035,8.56,72658.0,-5.13,-6.55,-6.55,0,*54
1488225733.78,36036,8.56,72658.8,-5.17,-6.73,-6.59,0,*5B
1488225734.98,36037,8.56,72660.5,-5.13,-6.73,-6.59,0,*5E
1488225736.17,36038,8.56,72670.3,-5.13,-6.73,-6.69,0,*52
1488225737.39,36039,8.56,72672.0,-5.17,-6.85,-6.63,0,*54
1488225738.61,36040,8.56,72672.3,-5.17,-6.89,-6.63,0,*56
1488225739.84,36041,8.56,72678.0,-5.17,-6.85,-6.63,0,*5B
1488225741.03,36042,8.56,72680.0,-5.13,-6.59,-6.43,0,*5F
1488225742.24,36043,8.56,72676.0,-5.13,-6.43,-6.35,0,*54
1488225743.48,36044,8.56,72674.8,-5.13,-6.23,-6.19,0,*5B
1488225744.7,36045,8.56,72684.0,-5.17,-6.13,-6.23,0,*54
1488225745.89,36046,8.56,72676.8,-5.13,-6.05,-6.09,0,*5C
1488225747.09,36047,8.56,72674.5,-5.13,-5.97,-5.97,0,*51
1488225748.28,36048,8.56,72652.8,-5.13,-6.05,-5.97,0,*56
1488225749.5,36049,8.56,72660.8,-5.13,-6.19,-6.05,0,*52
1488225750.72,36050,8.56,72652.3,-5.11,-6.31,-6.09,0,*5E
1488225751.94,36051,8.56,72640.8,-5.11,-6.35,-6.09,0,*5B
1488225753.13,36052,8.56,72630.3,-5.13,-6.47,-6.09,0,*5F
1488225754.35,36053,8.56,72622.5,-5.11,-6.55,-6.09,0,*5F
1488225755.6,36054,8.56,72618.0,-5.11,-6.55,-6.19,0,*59
1488225756.84,36055,8.56,72604.3,-5.11,-6.55,-6.23,0,*51
1488225758.05,36056,8.56,72598.8,-5.11,-6.69,-6.09,0,*55
1488225759.27,36057,8.56,72582.3,-5.11,-6.59,-6.09,0,*57
1488225760.49,36058,8.56,72568.0,-5.11,-6.43,-6.05,0,*5F
1488225761.76,36059,8.56,72534.5,-5.11,-6.19,-5.93,0,*5D
1488225763.04,36060,8.56,72526.3,-5.11,-6.19,-5.93,0,*57
1488225764.23,36061,8.56,72496.8,-5.09,-6.43,-6.09,0,*50
1488225765.43,36062,8.56,72502.8,-5.09,-6.69,-6.81,0,*5B
1488225766.68,36063,8.56,72582.8,-5.09,-6.97,-8.11,0,*5C
1488225767.92,36064,8.56,72536.0,-5.11,-8.41,-9.83,0,*5D
1488225769.13,36065,8.5,72538.5,-5.09,-9.79,-10.15,0,*68
1488225770.34,36066,8.56,72552.0,-5.09,-12.97,-13.43,0,*51
1488225771.59,36067,8.56,72576.0,-5.11,-14.69,-15.35,0,*59
1488225772.85,36068,8.56,72594.8,-5.11,-14.89,-15.81,0,*57
1488225774.11,36069,8.56,72604.8,-5.13,-14.79,-15.81,0,*5B
1488225775.34,36070,8.56,72616.5,-5.13,-14.89,-15.89,0,*54
1488225776.58,36071,8.56,72634.3,-5.13,-14.75,-15.49,0,*5A
1488225777.82,36072,8.56,72612.5,-5.13,-14.47,-15.07,0,*52
1488225779.03,36073,8.56,72608.3,-5.13,-14.33,-15.07,0,*50
1488225780.3,36074,8.56,72614.0,-5.13,-14.47,-15.43,0,*54
1488225781.56,36075,8.5,72632.0,-5.13,-14.43,-15.43,0,*51
1488225782.77,36076,8.56,72616.3,-5.13,-14.61,-15.63,0,*50
1488225784.0,36077,8.56,72596.3,-5.13,-14.69,-15.43,0,*5B
1488225785.26,36078,8.56,72602.3,-5.13,-14.75,-15.43,0,*59
1488225786.48,36079,8.5,72616.0,-5.13,-14.69,-15.21,0,*51
1488225787.72,36080,8.56,72604.5,-5.13,-14.37,-15.35,0,*59
1488225788.95,36081,8.56,72568.5,-5.13,-14.15,-15.29,0,*55
1488225790.2,36082,8.56,72570.8,-5.13,-14.05,-15.49,0,*51
1488225791.43,36083,8.56,72572.0,-5.13,-14.33,-15.89,0,*59
1488225792.64,36084,8.56,72598.3,-5.17,-14.37,-15.99,0,*5F
1488225793.85,36085,8.56,72596.5,-5.17,-14.33,-15.99,0,*5A
1488225795.09,36086,8.56,72598.5,-5.13,-14.19,-15.85,0,*58
1488225796.33,36087,8.5,72608.3,-5.17,-14.05,-15.95,0,*51
1488225797.54,36088,8.5,72618.8,-5.17,-13.47,-15.07,0,*54
1488225798.77,36089,8.5,72596.0,-5.17,-12.93,-14.47,0,*58
1488225800.0,36090,8.56,72552.0,-5.17,-11.81,-13.11,0,*54
1488225801.24,36091,8.56,72578.8,-5.17,-11.07,-11.41,0,*5C
1488225802.5,36092,8.56,72600.0,-5.17,-12.11,-11.93,0,*54
1488225803.73,36093,8.5,72630.5,-5.17,-13.07,-12.61,0,*5D
1488225804.96,36094,8.56,72658.0,-5.13,-13.07,-12.15,0,*5D
1488225806.22,36095,8.56,72664.5,-5.13,-12.83,-11.63,0,*53
1488225807.46,36096,8.56,72688.5,-5.13,-12.71,-11.45,0,*59
1488225808.69,36097,8.56,72662.5,-5.17,-12.93,-11.51,0,*55
1488225809.93,36098,8.5,72648.8,-5.17,-13.01,-11.41,0,*51
1488225811.19,36099,8.5,72596.8,-5.17,-13.33,-11.55,0,*54
1488225812.41,36100,8.56,72638.5,-5.17,-13.47,-11.81,0,*5F
1488225813.67,36101,8.56,72578.5,-5.17,-13.79,-12.35,0,*5F
1488225814.89,36102,8.56,72586.3,-5.17,-14.19,-13.23,0,*5B
1488225816.12,36103,8.5,72578.3,-5.17,-14.51,-13.93,0,*5D
1488225817.35,36104,8.56,72604.0,-5.13,-14.75,-14.33,0,*55
1488225818.55,36105,8.56,72588.8,-5.13,-14.89,-14.61,0,*50
1488225819.83,36106,8.56,72600.8,-5.11,-14.79,-14.79,0,*57
1488225821.09,36107,8.56,72616.3,-5.13,-14.79,-15.01,0,*5A
1488225822.29,36108,8.56,72620.3,-5.17,-14.69,-14.89,0,*51
1488225823.56,36109,8.56,72624.5,-5.13,-14.47,-14.55,0,*59
1488225824.8,36110,8.5,72622.5,-5.13,-14.19,-14.01,0,*5B
1488225826.02,36111,8.56,72614.8,-5.13,-14.15,-14.19,0,*5F
1488225827.26,36112,8.56,72620.0,-5.17,-14.51,-14.65,0,*53
1488225828.47,36113,8.56,72634.8,-5.17,-14.89,-15.07,0,*52
1488225829.67,36114,8.56,72646.5,-5.17,-15.11,-15.53,0,*54
1488225830.9,36115,8.56,72628.3,-5.13,-15.07,-15.89,0,*51
1488225832.14,36116,8.5,72660.8,-5.11,-14.89,-15.63,0,*53
1488225833.39,36117,8.56,72652.8,-5.17,-14.93,-15.85,0,*57
1488225834.63,36118,8.56,72660.5,-5.17,-14.83,-15.95,0,*58
1488225835.89,36119,8.56,72644.0,-5.17,-14.75,-15.85,0,*51
1488225837.13,36120,8.5,72564.8,-5.13,-14.05,-14.89,0,*55
1488225838.35,36121,8.56,72590.5,-5.17,-13.11,-13.79,0,*5A
1488225839.61,36122,8.5,72610.5,-5.17,-11.77,-12.65,0,*57
1488225840.84,36123,8.5,72638.5,-5.17,-10.93,-11.51,0,*59
1488225842.06,36124,8.56,72600.3,-5.17,-9.57,-9.75,0,*51
1488225843.26,36125,8.56,72610.3,-5.13,-9.79,-10.53,0,*64
1488225844.49,36126,8.5,72602.8,-5.13,-11.15,-12.15,0,*54
1488225845.75,36127,8.5,72602.3,-5.13,-11.97,-12.61,0,*5C
1488225846.95,36128,8.5,72612.0,-5.13,-13.43,-14.33,0,*59
1488225848.18,36129,8.56,72644.0,-5.13,-13.07,-13.79,0,*51
1488225849.39,36130,8.56,72668.8,-5.13,-13.47,-13.19,0,*5B
1488225850.6,36131,8.5,72596.3,-5.17,-14.37,-14.61,0,*56
1488225851.83,36132,8.56,72610.5,-5.17,-14.93,-15.11,0,*5D
1488225853.06,36133,8.56,72624.8,-5.13,-15.01,-15.49,0,*5F
1488225854.27,36134,8.5,72624.8,-5.13,-15.07,-15.71,0,*55
1488225855.52,36135,8.5,72626.8,-5.17,-15.21,-15.85,0,*5F
1488225856.75,36136,8.5,72644.0,-5.13,-15.15,-15.89,0,*53
1488225857.97,36137,8.5,72616.5,-5.17,-15.07,-15.49,0,*59
1488225859.17,36138,8.5,72646.0,-5.13,-14.29,-14.33,0,*53
1488225860.39,36139,8.56,72648.0,-5.17,-14.19,-14.23,0,*54
1488225861.62,36140,8.5,72646.0,-5.17,-14.65,-14.93,0,*5A
1488225862.84,36141,8.56,72638.0,-5.13,-14.69,-14.79,0,*57
1488225864.08,36142,8.5,72648.8,-5.13,-14.89,-15.43,0,*52
1488225865.29,36143,8.5,72644.8,-5.13,-15.15,-15.95,0,*5C
1488225866.5,36144,8.5,72636.0,-5.13,-15.15,-15.95,0,*5B
1488225867.76,36145,8.5,72628.8,-5.11,-15.07,-16.09,0,*5D
1488225869.0,36146,8.5,72634.0,-5.17,-13.97,-14.33,0,*5C
1488225870.28,36147,8.5,72666.0,-5.11,-12.75,-13.29,0,*5A
1488225871.48,36148,8.5,72662.0,-5.13,-12.89,-13.73,0,*5B
1488225872.69,36149,8.5,72648.3,-5.13,-13.47,-14.15,0,*5E
1488225873.92,36150,8.5,72650.3,-5.13,-14.43,-15.15,0,*54
1488225875.17,36151,8.5,72662.3,-5.13,-14.47,-15.49,0,*58
1488225876.38,36152,8.5,72660.5,-5.13,-14.89,-16.03,0,*54
1488225877.62,36153,8.56,72660.5,-5.13,-15.29,-16.17,0,*5B
1488225878.87,36154,8.5,72656.8,-5.13,-15.21,-16.09,0,*5B
1488225880.13,36155,8.5,72638.3,-5.13,-14.93,-15.89,0,*59
1488225881.38,36156,8.5,72620.5,-5.13,-15.01,-16.09,0,*5B
1488225882.59,36157,8.5,72616.0,-5.13,-14.89,-15.71,0,*57
1488225883.82,36158,8.5,72630.5,-5.17,-15.11,-16.09,0,*50
1488225885.03,36159,8.5,72630.8,-5.13,-15.07,-15.95,0,*54
1488225886.29,36160,8.5,72626.0,-5.13,-14.93,-15.81,0,*57
1488225887.52,36161,8.5,72640.0,-5.17,-14.83,-15.67,0,*5B
1488225888.73,36162,8.5,72618.0,-5.17,-14.65,-15.53,0,*57
1488225889.95,36163,8.56,72610.0,-5.17,-14.37,-15.25,0,*50
1488225891.19,36164,8.5,72630.3,-5.17,-14.19,-14.97,0,*53
1488225892.41,36165,8.5,72642.3,-5.17,-14.15,-14.61,0,*57
1488225893.64,36166,8.5,72654.3,-5.13,-13.87,-14.15,0,*5F
1488225894.87,36167,8.5,72640.8,-5.17,-13.61,-13.93,0,*5B
1488225896.1,36168,8.5,72634.0,-5.17,-13.37,-13.73,0,*59
1488225897.31,36169,8.56,72622.0,-5.13,-12.97,-13.43,0,*54
1488225898.54,36170,8.5,72626.8,-5.13,-12.47,-13.29,0,*5D
1488225899.8,36171,8.5,72632.8,-5.17,-11.55,-12.61,0,*55
1488225901.05,36172,8.5,72644.3,-5.13,-11.33,-12.61,0,*52
1488225902.28,36173,8.56,72652.5,-5.13,-10.89,-11.77,0,*57
1488225903.54,36174,8.5,72658.3,-5.17,-10.71,-11.55,0,*53
1488225904.8,36175,8.5,72648.5,-5.17,-11.67,-12.65,0,*54
1488225906.03,36176,8.5,72660.5,-5.17,-11.81,-12.93,0,*56
1488225907.28,36177,8.56,72662.8,-5.13,-12.15,-13.29,0,*5D
1488225908.51,36178,8.5,72658.0,-5.13,-12.79,-13.43,0,*54
1488225909.71,36179,8.5,72652.8,-5.17,-13.19,-13.47,0,*52
1488225910.92,36180,8.5,72670.3,-5.17,-13.65,-14.33,0,*5B
1488225912.18,36181,8.5,72610.5,-5.13,-14.05,-15.01,0,*5F
1488225913.42,36182,8.5,72642.3,-5.13,-14.61,-15.57,0,*5D
1488225914.64,36183,8.5,72650.3,-5.13,-15.01,-16.03,0,*59
1488225915.89,36184,8.5,72598.0,-5.13,-15.21,-16.23,0,*5E
1488225917.09,36185,8.5,72604.5,-5.13,-15.29,-16.45,0,*57
1488225918.35,36186,8.5,72652.3,-5.13,-15.35,-16.23,0,*59
1488225919.58,36187,8.5,72640.0,-5.17,-15.39,-16.37,0,*55
1488225920.84,36188,8.5,72650.3,-5.13,-15.35,-16.23,0,*57
1488225922.04,36189,8.5,72662.5,-5.17,-15.53,-16.37,0,*57
1488225923.27,36190,8.5,72658.3,-5.17,-15.53,-16.27,0,*5E
1488225924.51,36191,8.5,72654.8,-5.13,-15.49,-16.17,0,*53
1488225925.77,36192,8.5,72644.3,-5.17,-15.39,-16.13,0,*57
1488225927.0,36193,8.5,72640.8,-5.13,-15.01,-15.95,0,*54
1488225928.22,36194,8.5,72656.3,-5.17,-14.97,-16.37,0,*52
1488225929.47,36195,8.56,72634.0,-5.17,-15.35,-16.51,0,*5A
1488225930.7,36196,8.5,72630.8,-5.17,-15.49,-16.65,0,*55
1488225931.93,36197,8.5,72624.0,-5.17,-15.63,-16.65,0,*5C
1488225933.15,36198,8.5,72610.3,-5.17,-15.63,-16.75,0,*52
1488225934.38,36199,8.5,72604.0,-5.13,-15.75,-16.69,0,*5D
1488225935.62,36200,8.5,72614.8,-5.17,-15.75,-16.69,0,*5A
1488225936.83,36201,8.5,72626.8,-5.17,-15.75,-16.75,0,*56
1488225938.05,36202,8.5,72636.5,-5.17,-15.75,-16.75,0,*55
1488225939.28,36203,8.5,72644.5,-5.17,-15.67,-16.69,0,*5A
1488225940.51,36204,8.5,72652.5,-5.17,-15.75,-16.51,0,*55
1488225941.72,36205,8.5,72664.0,-5.17,-15.63,-16.55,0,*57
1488225942.95,36206,8.5,72664.8,-5.17,-15.39,-16.37,0,*5F
1488225944.21,36207,8.5,72676.3,-5.13,-15.35,-16.17,0,*54
1488225945.44,36208,8.5,72670.3,-5.17,-15.35,-16.37,0,*5D
1488225946.65,36209,8.5,72664.3,-5.17,-15.49,-16.41,0,*56
1488225947.89,36210,8.56,72672.5,-5.13,-15.43,-16.59,0,*59
1488225949.12,36211,8.5,72702.5,-5.17,-15.67,-16.65,0,*55
1488225950.33,36212,8.5,72658.3,-5.17,-15.67,-16.55,0,*55
1488225951.56,36213,8.5,72630.0,-5.17,-15.39,-16.41,0,*5A
1488225952.79,36214,8.5,72648.3,-5.17,-15.39,-16.41,0,*5D
1488225954.02,36215,8.5,72644.5,-5.17,-15.53,-16.51,0,*51
1488225955.26,36216,8.5,72654.8,-5.13,-15.75,-16.65,0,*55
1488225956.51,36217,8.5,72648.0,-5.17,-15.81,-16.69,0,*57
1488225957.73,36218,8.5,72672.8,-5.17,-15.75,-16.55,0,*5C
1488225958.96,36219,8.5,72672.8,-5.17,-15.67,-16.65,0,*5D
1488225960.22,36220,8.5,72666.8,-5.19,-15.57,-16.55,0,*59
1488225961.45,36221,8.5,72636.8,-5.19,-15.67,-16.55,0,*5B
1488225962.66,36222,8.5,72626.0,-5.21,-15.67,-16.59,0,*5F
1488225963.87,36223,8.5,72614.3,-5.21,-15.29,-16.45,0,*59
1488225965.1,36224,8.5,72610.3,-5.19,-15.11,-16.41,0,*5A
1488225966.35,36225,8.5,72596.3,-5.19,-14.69,-16.27,0,*55
1488225967.62,36226,8.5,72588.8,-5.19,-15.01,-16.69,0,*53
1488225968.86,36227,8.5,72612.8,-5.19,-15.53,-16.89,0,*5B
1488225970.11,36228,8.5,72616.3,-5.19,-15.81,-16.93,0,*50
1488225971.34,36229,8.5,72620.8,-5.21,-15.81,-16.89,0,*51
1488225972.57,36230,8.5,72638.0,-5.19,-15.71,-16.75,0,*5E
1488225973.83,36231,8.5,72650.3,-5.21,-15.57,-16.69,0,*5D
1488225975.1,36232,8.5,72644.0,-5.19,-15.43,-16.59,0,*53
1488225976.33,36233,8.5,72646.0,-5.19,-15.29,-16.41,0,*57
1488225977.61,36234,8.5,72638.0,-5.19,-15.57,-16.69,0,*53
1488225978.85,36235,8.5,72642.5,-5.21,-15.81,-16.79,0,*53
1488225980.08,36236,8.5,72622.3,-5.21,-15.71,-16.31,0,*53
1488225981.34,36237,8.5,72608.3,-5.21,-14.79,-14.97,0,*55
1488225982.56,36238,8.5,72638.3,-5.21,-13.65,-15.11,0,*5F
1488225983.79,36239,8.56,72656.8,-5.21,-13.43,-15.89,0,*5B
1488225985.03,36240,8.5,72650.8,-5.21,-13.11,-15.39,0,*59
1488225986.3,36241,8.5,72652.8,-5.19,-12.53,-14.89,0,*5E
1488225987.51,36242,8.5,72656.3,-5.21,-13.15,-16.03,0,*55
1488225988.77,36243,8.5,72674.0,-5.21,-13.97,-16.27,0,*58
1488225990.04,36244,8.5,72688.8,-5.21,-14.01,-16.17,0,*54
1488225991.28,36245,8.5,72664.3,-5.19,-13.43,-15.71,0,*5C
1488225992.52,36246,8.5,72676.3,-5.21,-13.55,-15.89,0,*54
1488225993.77,36247,8.5,72658.8,-5.21,-14.15,-16.17,0,*52
1488225995.03,36248,8.5,72612.8,-5.21,-14.79,-16.27,0,*54
1488225996.29,36249,8.5,72678.5,-5.19,-15.43,-16.75,0,*51
1488225997.53,36250,8.5,72678.3,-5.21,-15.57,-16.75,0,*57
1488225998.74,36251,8.5,72684.5,-5.21,-15.71,-16.79,0,*5E
1488225999.98,36252,8.5,72718.3,-5.21,-15.57,-16.75,0,*55
1488226001.19,36253,8.5,72722.3,-5.21,-15.53,-16.41,0,*57
1488226002.43,36254,8.5,72674.3,-5.21,-15.29,-16.31,0,*5A
1488226003.66,36255,8.5,72654.0,-5.21,-15.11,-16.13,0,*50
1488226004.91,36256,8.5,72674.8,-5.19,-15.39,-16.45,0,*51
1488226006.13,36257,8.5,72670.8,-5.21,-15.53,-16.59,0,*5A
1488226007.37,36258,8.5,72680.8,-5.19,-15.53,-16.59,0,*5E
1488226008.58,36259,8.5,72676.8,-5.21,-15.67,-16.55,0,*5F
1488226009.86,36260,8.5,72702.5,-5.19,-15.81,-16.31,0,*54
1488226011.1,36261,8.5,72712.0,-5.21,-15.71,-16.17,0,*55
1488226012.35,36262,8.5,72718.5,-5.19,-15.57,-15.99,0,*5C
1488226013.57,36263,8.5,72706.5,-5.21,-15.29,-15.71,0,*59
1488226014.83,36264,8.5,72706.3,-5.19,-15.53,-16.13,0,*5F
1488226016.09,36265,8.5,72710.8,-5.21,-15.57,-16.17,0,*55
1488226017.37,36266,8.5,72702.5,-5.19,-15.01,-15.57,0,*59
1488226018.58,36267,8.5,72680.0,-5.21,-14.65,-14.89,0,*52
1488226019.81,36268,8.5,72686.0,-5.19,-14.89,-15.11,0,*54
1488226021.05,36269,8.5,72678.0,-5.19,-15.15,-15.29,0,*5A
1488226022.3,36270,8.5,72674.8,-5.19,-14.89,-15.29,0,*56
1488226023.56,36271,8.5,72708.0,-5.19,-15.29,-15.89,0,*56
1488226024.82,36272,8.5,72688.0,-5.19,-15.29,-15.89,0,*55
1488226026.1,36273,8.5,72658.8,-5.19,-15.43,-16.13,0,*58
1488226027.36,36274,8.5,72672.0,-5.19,-15.53,-16.31,0,*5E
1488226028.6,36275,8.5,72686.0,-5.19,-15.53,-16.41,0,*58
1488226029.86,36276,8.5,72672.3,-5.19,-15.25,-16.17,0,*59
1488226031.14,36277,8.5,72680.0,-5.19,-15.01,-16.17,0,*5E
1488226032.35,36278,8.5,72684.8,-5.21,-15.25,-16.03,0,*59
1488226033.61,36279,8.5,72652.5,-5.19,-14.97,-15.25,0,*5C
1488226034.88,36280,8.5,72638.8,-5.19,-13.51,-14.01,0,*50
1488226036.1,36281,8.5,72644.0,-5.19,-12.39,-13.43,0,*5F
1488226037.36,36282,8.5,72688.8,-5.19,-11.97,-13.07,0,*5B
1488226038.61,36283,8.5,72684.0,-5.17,-11.81,-12.61,0,*52
1488226039.85,36284,8.5,72686.3,-5.17,-11.11,-11.89,0,*59
1488226041.13,36285,8.5,72668.0,-5.19,-10.75,-11.81,0,*5D
1488226042.39,36286,8.5,72644.5,-5.19,-10.57,-11.93,0,*5D
1488226043.6,36287,8.5,72664.8,-5.17,-10.97,-12.03,0,*54
1488226044.86,36288,8.5,72672.0,-5.19,-11.67,-12.43,0,*5F
1488226046.12,36289,8.5,72672.3,-5.17,-12.11,-12.53,0,*53
1488226047.36,36290,8.5,72680.3,-5.17,-12.39,-12.75,0,*55
1488226048.56,36291,8.5,72662.8,-5.17,-12.47,-13.07,0,*59
1488226049.81,36292,8.5,72518.5,-5.17,-12.61,-13.01,0,*58
1488226051.05,36293,8.5,72550.5,-5.13,-13.55,-14.01,0,*5C
1488226052.31,36294,8.5,72568.8,-5.17,-14.75,-15.39,0,*50
1488226053.54,36295,8.5,72572.8,-5.17,-15.39,-16.37,0,*55
1488226054.75,36296,8.5,72616.0,-5.13,-15.71,-16.59,0,*56
1488226055.99,36297,8.5,72608.3,-5.17,-15.75,-16.69,0,*54
1488226057.25,36298,8.5,72630.8,-5.17,-15.85,-16.69,0,*54
1488226058.48,36299,8.5,72636.0,-5.17,-15.81,-16.75,0,*5C
1488226059.74,36300,8.5,72664.3,-5.17,-15.81,-16.65,0,*5C
1488226060.97,36301,8.5,72652.3,-5.17,-15.75,-16.65,0,*56
1488226062.21,36302,8.5,72672.3,-5.19,-15.71,-16.55,0,*5C
1488226063.44,36303,8.5,72668.3,-5.17,-15.67,-16.17,0,*52
1488226064.65,36304,8.5,72668.3,-5.17,-15.07,-15.11,0,*56
1488226065.86,36305,8.5,72660.8,-5.17,-14.23,-14.33,0,*51
1488226067.07,36306,8.5,72648.8,-5.13,-13.55,-13.73,0,*53
1488226068.32,36307,8.5,72658.3,-5.17,-13.33,-13.97,0,*5C
1488226069.53,36308,8.5,72670.8,-5.13,-13.69,-13.73,0,*52
1488226070.81,36309,8.5,72660.5,-5.11,-12.71,-12.57,0,*5E
1488226072.07,36310,8.5,72658.8,-5.13,-10.41,-11.73,0,*50
1488226073.28,36311,8.5,72660.8,-5.13,-10.27,-13.19,0,*5F
1488226074.51,36312,8.5,72668.8,-5.13,-12.43,-14.55,0,*53
1488226075.76,36313,8.5,72666.0,-5.11,-12.89,-13.87,0,*5E
1488226077.02,36314,8.5,72682.5,-5.11,-12.35,-12.97,0,*5E
1488226078.28,36315,8.5,72678.3,-5.09,-13.37,-13.37,0,*5E
1488226079.52,36316,8.5,72686.3,-5.09,-14.01,-14.29,0,*57
1488226080.78,36317,8.5,72694.5,-5.07,-14.37,-14.93,0,*5C
1488226082.03,36318,8.5,72692.8,-5.07,-14.79,-14.69,0,*5C
1488226083.29,36319,8.5,72696.0,-5.07,-14.37,-13.33,0,*5F
1488226084.54,36320,8.5,72704.0,-5.07,-13.47,-11.29,0,*5C
1488226085.74,36321,8.5,72688.0,-5.05,-10.85,-8.89,0,*60
1488226086.97,36322,8.5,72670.0,-5.05,-8.55,-7.27,0,*5C
1488226088.17,36323,8.5,72642.3,-5.05,-8.21,-6.39,0,*50
1488226089.42,36324,8.5,72608.3,-5.05,-6.93,-5.69,0,*56
1488226090.64,36325,8.5,72602.3,-5.01,-6.55,-5.81,0,*5F
1488226091.84,36326,8.5,72600.8,-5.01,-6.35,-6.05,0,*55
1488226093.08,36327,8.5,72600.3,-5.03,-6.23,-6.09,0,*5D
1488226094.29,36328,8.5,72596.5,-5.03,-6.55,-6.69,0,*55
1488226095.51,36329,8.5,72594.5,-5.03,-7.53,-7.49,0,*50
1488226096.78,36330,8.5,72600.0,-5.03,-8.51,-7.95,0,*54
1488226098.02,36331,8.5,72598.0,-5.03,-9.45,-8.71,0,*54
1488226099.27,36332,8.5,72602.5,-5.03,-10.23,-9.45,0,*69
1488226100.48,36333,8.5,72602.3,-5.01,-10.89,-10.35,0,*55
1488226101.74,36334,8.5,72596.8,-5.01,-11.07,-10.63,0,*56
1488226102.97,36335,8.5,72598.5,-5.01,-11.37,-10.35,0,*57
1488226104.17,36336,8.5,72596.8,-5.01,-10.27,-9.93,0,*60
1488226105.4,36337,8.5,72596.5,-4.97,-8.71,-8.45,0,*5F
1488226106.66,36338,8.5,72600.3,-4.97,-7.87,-7.61,0,*5F
1488226107.91,36339,8.5,72620.5,-4.97,-7.53,-7.43,0,*57
1488226109.16,36340,8.5,72666.3,-4.97,-7.23,-6.97,0,*56